Meteo Giornale » Osservazioni meteo Italia » Lamezia Terme

ore: 03:20 - Osservazioni Meteo Lamezia Terme
Lat. 38° 54' N Lon. 16° 15' E Alt. 15 metri s.l.m.

sereno

23 °C

Sereno

Temp. 24 Ore

23 °C

32 °C

Nord

1.8 Km/h

Dew point 21 °C

Umidità 88 %

Visibilità  10 Km

Il sole sorge alle ore 06:25

Il sole tramonta alle ore 19:23

Data e Ora Cielo e Fenomeni T °C DP °C Um. % Pres. hPa Vis. km Vento km/h
Oggi h: 03:20 sereno Sereno 23 21 88 1016 10 N 1.8
Oggi h: 02:50 sereno Sereno 23 20 83 1017 10 N/NE 7.4
Oggi h: 02:20 sereno Sereno 25 22 83 1017 10 N 5.5
Oggi h: 01:50 poco_nuvoloso Poco Nuvoloso 25 23 88 1017 10 S/SO 7.4
Oggi h: 01:20 molto_nuvoloso Molto Nuvoloso 25 23 88 1017 10 N 3.7
Oggi h: 00:50 sereno Sereno 25 21 78 1017 10 N 5.5
Oggi h: 00:20 sereno Sereno 26 23 83 1017 10 O 9.3
Ieri h: 23:50 nuvoloso Nuvoloso 27 23 78 1017 10 O 9.3
Ieri h: 23:20 nuvoloso Nuvoloso 27 23 78 1017 10 O 9.3
Ieri h: 22:50 poco_nuvoloso Poco Nuvoloso 27 23 78 1017 10 O 11.1
Ieri h: 22:20 poco_nuvoloso Poco Nuvoloso 28 23 74 1017 10 O/SO 13
Ieri h: 21:50 nuvoloso Nuvoloso 28 23 74 1017 10 O/SO 16.7
Ieri h: 21:20 poco_nuvoloso Poco Nuvoloso 28 23 74 1017 10 O/SO 13
Ieri h: 20:50 poco_nuvoloso Poco Nuvoloso 28 23 74 1017 10 O/SO 18.5
Ieri h: 20:20 poco_nuvoloso Poco Nuvoloso 28 23 74 1017 10 O 18.5
Ieri h: 19:50 poco_nuvoloso Poco Nuvoloso 28 23 74 1017 10 O/SO 14.8
Ieri h: 19:20 sereno Sereno 28 23 74 1017 10 O/SO 18.5
Ieri h: 18:50 sereno Sereno 29 23 70 1017 10 O 18.5
Ieri h: 18:20 sereno Sereno 29 23 70 1017 10 O 22.2
Ieri h: 17:50 sereno Sereno 30 23 66 1017 10 O 24
Ieri h: 17:20 sereno Sereno 30 24 70 1017 10 O 27.8
Ieri h: 16:50 sereno Sereno 30 24 70 1017 10 O 29.6
Ieri h: 16:20 sereno Sereno 31 24 66 1017 10 O 29.6
Ieri h: 15:50 sereno Sereno 31 24 66 1017 10 O 27.8
Ieri h: 15:20 sereno Sereno 31 24 66 1017 10 O 31.5
Ieri h: 14:50 sereno Sereno 31 24 66 1017 10 O/SO 29.6
Ieri h: 14:20 sereno Sereno 32 25 66 1018 10 O 27.8
Ieri h: 13:50 sereno Sereno 31 25 70 1018 10 O/SO 25.9
Ieri h: 13:20 poco_nuvoloso Poco Nuvoloso 31 25 70 1018 10 O/SO 24
Ieri h: 12:50 poco_nuvoloso Poco Nuvoloso 31 25 70 1018 10 O/SO 22.2
Ieri h: 12:20 poco_nuvoloso Poco Nuvoloso 31 25 70 1018 10 SO 20.3
Ieri h: 11:50 poco_nuvoloso Poco Nuvoloso 31 25 70 1019 10 SO 18.5
Ieri h: 11:20 poco_nuvoloso Poco Nuvoloso 31 25 70 1019 10 SO 18.5
Ieri h: 10:50 molto_nuvoloso Molto Nuvoloso 31 24 66 1018 10 O/SO 18.5
Ieri h: 10:20 poco_nuvoloso Poco Nuvoloso 30 24 70 1018 10 SO 16.7
Ieri h: 09:50 poco_nuvoloso Poco Nuvoloso 30 24 70 1018 10 SO 14.8
Ieri h: 09:20 poco_nuvoloso Poco Nuvoloso 29 24 74 1018 10 SO 13
Ieri h: 08:50 molto_nuvoloso Molto Nuvoloso 29 24 74 1018 10 SO 11.1
Ieri h: 08:20 molto_nuvoloso Molto Nuvoloso 28 24 78 1018 10 N 5.5
Ieri h: 07:50 molto_nuvoloso Molto Nuvoloso 28 24 78 1018 10 SO 7.4
Ieri h: 07:20 coperto Coperto 27 23 78 1018 10 N 3.7
Ieri h: 06:50 molto_nuvoloso Molto Nuvoloso 27 23 78 1018 10 N 1.8
Ieri h: 06:20 molto_nuvoloso Molto Nuvoloso 27 23 78 1017 10 N 5.5
Ieri h: 05:50 nuvoloso Nuvoloso 26 23 83 1017 10 N 5.5
Ieri h: 05:20 molto_nuvoloso Molto Nuvoloso 26 23 83 1017 10 N 3.7
Ieri h: 04:50 poco_nuvoloso Poco Nuvoloso 26 23 83 1017 10 N 3.7
Ieri h: 04:20 molto_nuvoloso Molto Nuvoloso 26 23 83 1017 10 N 1.8
Ieri h: 03:50 nuvoloso Nuvoloso 26 23 83 1017 10 N 1.8